Powrót do katalogu

BREEZE-M DEB

LostHEO
NORAD 38614·DEBRIS·🇷🇺 Russia

Wystrzelony Mar 14, 2008 z Baikonur Cosmodrome

Loading…

Następne Przeloty (najbliższe 24 godziny)

TLE

NieaktualneSource: Space-Track

Epoka: Sep 15, 2016, 02:44 UTC

1 38614U 08011BM  16259.11426498 -.00000070  00000-0  00000+0 0  9997
2 38614  49.2486 234.0728 6221886 157.7874 249.2927  3.02905563 58196

Śledź BREEZE-M DEB w czasie rzeczywistym z AllMySat

Download on the App Store